Voltar ao catálogo

DELTA 1 DEB

AtivoSSO
NORAD 10763·DEBRIS·🇺🇸 United States

Lançado Jul 29, 1976 de Vandenberg Space Force Base

Loading…

Próximas Passagens (próximas 24 horas)

TLE

AtualizadoSource: Space-Track

Época: Sep 14, 2026, 10:07 UTC

1 10763U 76077BL  26257.42220206 -.00000006  00000-0  31652-3 0  9991
2 10763 102.2567 226.1705 0045564 224.9603 289.8032 12.33867455257487

Acompanhe DELTA 1 DEB em tempo real com AllMySat

Download on the App Store